Location: Unspecified
(0.0000°N, 0.0000°E)
Time: 13:20:43
(UTC+00:00)

SICH 2 - Pass Details

Date: 07 June 2023
Orbit: 674 x 694 km, 97.8° (Epoch: 22 September)

Event Time Altitude Azimuth Distance (km) Brightness Sun altitude
Rises 18:36:26 0° 160° (SSE) 3,051 ? -8.6°
Reaches altitude 10° 18:38:44 10° 155° (SSE) 2,129 ? -9.2°
Maximum altitude 18:43:16 53° 79° (ENE) 838 ? -10.2°
Drops below altitude 10° 18:47:45 10° 2° (N) 2,107 ? -11.2°
Sets 18:50:01 0° 357° (N) 3,016 ? -11.8°
